START_TIME,STEP,MOV.,A46,t_acc.,A13,t_acc.,M47,t_acc.,A17,t_acc.,A28,t_acc.,M38,t_acc.
1979-07-26 12:00:24.830 ,0,0,,0,90.,4.8,12.,4.8,,0,0.,4.8,27.,4.8
1979-07-26 12:00:29.630 ,0,0,,0,106.,4.8,14.,4.8,,0,0.,4.8,24.,4.8
1979-07-26 12:00:34.430 ,0,0,,0,102.,4.8,12.,4.8,,0,0.,4.8,34.,4.8
1979-07-26 12:00:39.230 ,0,0,,0,0.,4.8,0.,4.8,,0,0.,4.8,27.,4.8
1979-07-26 12:00:44.030 ,0,0,,0,0.,4.8,0.,4.8,,0,0.,4.8,18.,4.8
1979-07-26 12:00:48.830 ,1,0,,0,0.,4.8,0.,4.8,,0,0.,4.8,14.,4.8
1979-07-26 12:00:53.630 ,1,0,,0,0.,4.8,0.,4.8,,0,0.,4.8,18.,4.8
1979-07-26 12:00:58.430 ,1,0,,0,2.,4.8,0.,4.8,,0,0.,4.8,5.,4.8
1979-07-26 12:01:03.230 ,1,0,,0,15.,4.8,1.,4.8,,0,0.,4.8,1.,4.8
1979-07-26 12:01:08.030 ,1,0,,0,20.,4.8,2.,4.8,,0,0.,4.8,4.,4.8
1979-07-26 12:01:12.830 ,1,0,,0,26.,4.8,1.,4.8,,0,0.,4.8,6.,4.8
1979-07-26 12:01:17.630 ,1,0,,0,21.,4.8,2.,4.8,,0,0.,4.8,4.,4.8
1979-07-26 12:01:22.430 ,1,0,,0,16.,4.8,1.,4.8,,0,0.,4.8,3.,4.8
1979-07-26 12:01:27.230 ,1,0,,0,0.,4.8,0.,4.8,,0,0.,4.8,5.,4.8
1979-07-26 12:01:32.030 ,1,0,,0,0.,4.8,0.,4.8,,0,0.,4.8,0.,4.8
1979-07-26 12:01:36.830 ,2,0,,0,0.,4.8,0.,4.8,,0,0.,4.8,3.,4.8
1979-07-26 12:01:41.630 ,2,0,,0,0.,4.8,0.,4.8,,0,0.,4.8,1.,4.8
1979-07-26 12:01:46.430 ,2,0,,0,0.,4.8,0.,4.8,,0,0.,4.8,3.,4.8
1979-07-26 12:01:51.230 ,2,0,,0,2.,4.8,0.,4.8,,0,0.,4.8,0.,4.8
1979-07-26 12:01:56.030 ,2,0,,0,6.,4.8,0.,4.8,,0,0.,4.8,0.,4.8
1979-07-26 12:02:00.830 ,2,0,,0,10.,4.8,2.,4.8,,0,0.,4.8,3.,4.8
1979-07-26 12:02:05.630 ,2,0,,0,7.,4.8,0.,4.8,,0,0.,4.8,0.,4.8
1979-07-26 12:02:10.430 ,2,0,,0,3.,4.8,0.,4.8,,0,0.,4.8,1.,4.8
1979-07-26 12:02:15.230 ,2,0,,0,0.,4.8,1.,4.8,,0,0.,4.8,1.,4.8
1979-07-26 12:02:20.030 ,2,0,,0,0.,4.8,0.,4.8,,0,0.,4.8,3.,4.8
1979-07-26 12:02:24.830 ,3,0,,0,0.,4.8,0.,4.8,,0,0.,4.8,1.,4.8
1979-07-26 12:02:29.630 ,3,0,,0,0.,4.8,0.,4.8,,0,0.,4.8,0.,4.8
1979-07-26 12:02:34.430 ,3,0,,0,1.,4.8,0.,4.8,,0,0.,4.8,0.,4.8
1979-07-26 12:02:39.230 ,3,0,,0,6.,4.8,0.,4.8,,0,0.,4.8,2.,4.8
1979-07-26 12:02:44.030 ,3,0,,0,4.,4.8,0.,4.8,,0,0.,4.8,2.,4.8
1979-07-26 12:02:48.830 ,3,0,,0,5.,4.8,0.,4.8,,0,0.,4.8,3.,4.8
1979-07-26 12:02:53.630 ,3,0,,0,2.,4.8,0.,4.8,,0,0.,4.8,1.,4.8
1979-07-26 12:02:58.430 ,3,0,,0,5.,4.8,0.,4.8,,0,0.,4.8,0.,4.8
1979-07-26 12:03:03.230 ,3,0,,0,0.,4.8,0.,4.8,,0,0.,4.8,1.,4.8
1979-07-26 12:03:08.030 ,3,0,,0,0.,4.8,0.,4.8,,0,0.,4.8,0.,4.8
1979-07-26 12:03:12.830 ,4,0,,0,0.,4.8,0.,4.8,,0,0.,4.8,2.,4.8
1979-07-26 12:03:17.630 ,4,0,,0,0.,4.8,0.,4.8,,0,0.,4.8,2.,4.8
1979-07-26 12:03:22.430 ,4,0,,0,0.,4.8,0.,4.8,,0,0.,4.8,1.,4.8
1979-07-26 12:03:27.230 ,4,0,,0,1.,4.8,0.,4.8,,0,0.,4.8,1.,4.8
1979-07-26 12:03:32.030 ,4,0,,0,1.,4.8,0.,4.8,,0,0.,4.8,0.,4.8
1979-07-26 12:03:36.830 ,4,0,,0,4.,4.8,0.,4.8,,0,0.,4.8,1.,4.8
1979-07-26 12:03:41.630 ,4,0,,0,1.,4.8,0.,4.8,,0,0.,4.8,0.,4.8
1979-07-26 12:03:46.430 ,4,0,,0,4.,4.8,0.,4.8,,0,0.,4.8,0.,4.8
1979-07-26 12:03:51.230 ,4,0,,0,0.,4.8,0.,4.8,,0,0.,4.8,0.,4.8
1979-07-26 12:03:56.030 ,4,0,,0,0.,4.8,0.,4.8,,0,0.,4.8,0.,4.8
1979-07-26 12:04:00.830 ,5,0,,0,0.,4.8,0.,4.8,,0,0.,4.8,0.,4.8
1979-07-26 12:04:05.630 ,5,0,,0,0.,4.8,0.,4.8,,0,0.,4.8,1.,4.8
1979-07-26 12:04:10.430 ,5,0,,0,1.,4.8,0.,4.8,,0,0.,4.8,0.,4.8
1979-07-26 12:04:15.230 ,5,0,,0,3.,4.8,0.,4.8,,0,0.,4.8,1.,4.8
1979-07-26 12:04:20.030 ,5,0,,0,6.,4.8,0.,4.8,,0,0.,4.8,1.,4.8
1979-07-26 12:04:24.830 ,5,0,,0,6.,4.8,0.,4.8,,0,0.,4.8,0.,4.8
1979-07-26 12:04:29.630 ,5,0,,0,4.,4.8,0.,4.8,,0,0.,4.8,0.,4.8
1979-07-26 12:04:34.430 ,5,0,,0,1.,4.8,1.,4.8,,0,0.,4.8,0.,4.8
1979-07-26 12:04:39.230 ,5,0,,0,0.,4.8,0.,4.8,,0,0.,4.8,0.,4.8
1979-07-26 12:04:44.030 ,5,0,,0,0.,4.8,0.,4.8,,0,0.,4.8,0.,4.8
1979-07-26 12:04:48.830 ,6,0,,0,0.,4.8,0.,4.8,,0,0.,4.8,1.,4.8
1979-07-26 12:04:53.630 ,6,0,,0,0.,4.8,0.,4.8,,0,0.,4.8,0.,4.8
1979-07-26 12:04:58.430 ,6,0,,0,2.,4.8,0.,4.8,,0,0.,4.8,0.,4.8
1979-07-26 12:05:03.230 ,6,0,,0,4.,4.8,0.,4.8,,0,0.,4.8,0.,4.8
1979-07-26 12:05:08.030 ,6,0,,0,3.,4.8,0.,4.8,,0,0.,4.8,0.,4.8
1979-07-26 12:05:12.830 ,6,0,,0,5.,4.8,0.,4.8,,0,0.,4.8,0.,4.8
1979-07-26 12:05:17.630 ,6,0,,0,8.,4.8,0.,4.8,,0,0.,4.8,0.,4.8
1979-07-26 12:05:22.430 ,6,0,,0,1.,4.8,0.,4.8,,0,0.,4.8,1.,4.8
1979-07-26 12:05:27.230 ,6,0,,0,0.,4.8,0.,4.8,,0,0.,4.8,0.,4.8
1979-07-26 12:05:32.030 ,6,0,,0,0.,4.8,0.,4.8,,0,0.,4.8,0.,4.8
1979-07-26 12:05:36.830 ,7,0,,0,0.,4.8,0.,4.8,,0,0.,4.8,0.,4.8
1979-07-26 12:05:41.630 ,7,0,,0,0.,4.8,0.,4.8,,0,0.,4.8,0.,4.8
1979-07-26 12:05:46.430 ,7,0,,0,1.,4.8,0.,4.8,,0,0.,4.8,0.,4.8
1979-07-26 12:05:51.230 ,7,0,,0,10.,4.8,0.,4.8,,0,0.,4.8,0.,4.8
1979-07-26 12:05:56.030 ,7,0,,0,13.,4.8,0.,4.8,,0,0.,4.8,0.,4.8
1979-07-26 12:06:00.830 ,7,0,,0,5.,4.8,0.,4.8,,0,0.,4.8,0.,4.8
1979-07-26 12:06:05.630 ,7,0,,0,10.,4.8,0.,4.8,,0,0.,4.8,0.,4.8
1979-07-26 12:06:10.430 ,7,0,,0,2.,4.8,0.,4.8,,0,0.,4.8,0.,4.8
1979-07-26 12:06:15.230 ,7,0,,0,1.,4.8,0.,4.8,,0,0.,4.8,0.,4.8
1979-07-26 12:06:20.030 ,7,0,,0,0.,4.8,0.,4.8,,0,0.,4.8,0.,4.8
1979-07-26 12:06:24.830 ,7,0,,0,0.,4.8,0.,4.8,,0,0.,4.8,0.,4.8
1979-07-26 12:06:29.630 ,7,0,,0,0.,4.8,0.,4.8,,0,0.,4.8,0.,4.8
1979-07-26 12:06:34.430 ,7,0,,0,3.,4.8,0.,4.8,,0,0.,4.8,0.,4.8
1979-07-26 12:06:39.230 ,7,0,,0,13.,4.8,0.,4.8,,0,0.,4.8,0.,4.8
1979-07-26 12:06:44.030 ,7,0,,0,7.,4.8,0.,4.8,,0,0.,4.8,0.,4.8
1979-07-26 12:06:48.830 ,7,0,,0,3.,4.8,0.,4.8,,0,0.,4.8,0.,4.8
1979-07-26 12:06:53.630 ,7,0,,0,11.,4.8,0.,4.8,,0,0.,4.8,0.,4.8
1979-07-26 12:06:58.430 ,7,0,,0,12.,4.8,0.,4.8,,0,0.,4.8,0.,4.8
1979-07-26 12:07:03.230 ,7,0,,0,0.,4.8,0.,4.8,,0,0.,4.8,0.,4.8
1979-07-26 12:07:08.030 ,7,0,,0,0.,4.8,0.,4.8,,0,0.,4.8,0.,4.8
1979-07-26 12:07:12.830 ,6,0,,0,0.,4.8,0.,4.8,,0,0.,4.8,0.,4.8
1979-07-26 12:07:17.630 ,6,0,,0,0.,4.8,0.,4.8,,0,0.,4.8,1.,4.8
1979-07-26 12:07:22.430 ,6,0,,0,1.,4.8,0.,4.8,,0,0.,4.8,0.,4.8
1979-07-26 12:07:27.230 ,6,0,,0,3.,4.8,0.,4.8,,0,0.,4.8,0.,4.8
1979-07-26 12:07:32.030 ,6,0,,0,6.,4.8,0.,4.8,,0,0.,4.8,2.,4.8
1979-07-26 12:07:36.830 ,6,0,,0,2.,4.8,0.,4.8,,0,0.,4.8,1.,4.8
1979-07-26 12:07:41.630 ,6,0,,0,8.,4.8,1.,4.8,,0,0.,4.8,0.,4.8
1979-07-26 12:07:46.430 ,6,0,,0,2.,4.8,0.,4.8,,0,0.,4.8,0.,4.8
1979-07-26 12:07:51.230 ,6,0,,0,0.,4.8,0.,4.8,,0,0.,4.8,0.,4.8
1979-07-26 12:07:56.030 ,6,0,,0,0.,4.8,0.,4.8,,0,0.,4.8,1.,4.8
1979-07-26 12:08:00.830 ,0,0,,0,0.,4.8,0.,4.8,,0,0.,4.8,0.,4.8
1979-07-26 12:08:05.630 ,0,0,,0,,0,,0,,0,,0,,0
1979-07-26 12:08:10.430 ,0,0,,0,,0,,0,,0,,0,,0
1979-07-26 12:08:15.230 ,0,0,,0,,0,,0,,0,,0,,0
1979-07-26 12:08:20.030 ,0,0,,0,,0,,0,,0,,0,,0
1979-07-26 12:08:24.830 ,0,0,,0,,0,,0,,0,,0,,0
1979-07-26 12:08:29.630 ,0,0,,0,,0,,0,,0,,0,,0
1979-07-26 12:08:34.430 ,0,0,,0,,0,,0,,0,,0,,0
1979-07-26 12:08:39.230 ,0,0,,0,0.,4.8,0.,4.8,,0,0.,4.8,0.,4.8
1979-07-26 12:08:44.030 ,0,0,,0,0.,4.8,0.,4.8,,0,0.,4.8,0.,4.8
1979-07-26 12:08:48.830 ,4,0,,0,0.,4.8,0.,4.8,,0,0.,4.8,0.,4.8
1979-07-26 12:08:53.630 ,4,0,,0,0.,4.8,0.,4.8,,0,0.,4.8,0.,4.8
1979-07-26 12:08:58.430 ,4,0,,0,1.,4.8,0.,4.8,,0,0.,4.8,0.,4.8
1979-07-26 12:09:03.230 ,4,0,,0,5.,4.8,0.,4.8,,0,0.,4.8,0.,4.8
1979-07-26 12:09:08.030 ,4,0,,0,3.,4.8,0.,4.8,,0,0.,4.8,0.,4.8
1979-07-26 12:09:12.830 ,4,0,,0,5.,4.8,0.,4.8,,0,0.,4.8,0.,4.8
1979-07-26 12:09:17.630 ,4,0,,0,10.,4.8,0.,4.8,,0,0.,4.8,0.,4.8
1979-07-26 12:09:22.430 ,4,0,,0,3.,4.8,0.,4.8,,0,0.,4.8,0.,4.8
1979-07-26 12:09:27.230 ,4,0,,0,0.,4.8,0.,4.8,,0,0.,4.8,1.,4.8
1979-07-26 12:09:32.030 ,4,0,,0,0.,4.8,0.,4.8,,0,0.,4.8,0.,4.8
1979-07-26 12:09:36.830 ,3,0,,0,1.,4.8,0.,4.8,,0,0.,4.8,1.,4.8
1979-07-26 12:09:41.630 ,3,0,,0,0.,4.8,0.,4.8,,0,0.,4.8,0.,4.8
1979-07-26 12:09:46.430 ,3,0,,0,0.,4.8,0.,4.8,,0,0.,4.8,0.,4.8
1979-07-26 12:09:51.230 ,3,0,,0,3.,4.8,1.,4.8,,0,0.,4.8,1.,4.8
1979-07-26 12:09:56.030 ,3,0,,0,3.,4.8,0.,4.8,,0,0.,4.8,2.,4.8
1979-07-26 12:10:00.830 ,3,0,,0,6.,4.8,1.,4.8,,0,0.,4.8,1.,4.8
1979-07-26 12:10:05.630 ,3,0,,0,6.,4.8,0.,4.8,,0,0.,4.8,0.,4.8
1979-07-26 12:10:10.430 ,3,0,,0,2.,4.8,0.,4.8,,0,0.,4.8,1.,4.8
1979-07-26 12:10:15.230 ,3,0,,0,0.,4.8,0.,4.8,,0,0.,4.8,1.,4.8
1979-07-26 12:10:20.030 ,3,0,,0,0.,4.8,0.,4.8,,0,0.,4.8,1.,4.8
1979-07-26 12:10:24.830 ,2,0,,0,0.,4.8,0.,4.8,,0,0.,4.8,3.,4.8
1979-07-26 12:10:29.630 ,2,0,,0,0.,4.8,0.,4.8,,0,0.,4.8,0.,4.8
1979-07-26 12:10:34.430 ,2,0,,0,1.,4.8,0.,4.8,,0,0.,4.8,0.,4.8
1979-07-26 12:10:39.230 ,2,0,,0,6.,4.8,0.,4.8,,0,0.,4.8,1.,4.8
1979-07-26 12:10:44.030 ,2,0,,0,3.,4.8,0.,4.8,,0,0.,4.8,0.,4.8
1979-07-26 12:10:48.830 ,2,0,,0,4.,4.8,0.,4.8,,0,0.,4.8,1.,4.8
1979-07-26 12:10:53.630 ,2,0,,0,9.,4.8,0.,4.8,,0,0.,4.8,0.,4.8
1979-07-26 12:10:58.430 ,2,0,,0,4.,4.8,0.,4.8,,0,0.,4.8,3.,4.8
1979-07-26 12:11:03.230 ,2,0,,0,0.,4.8,0.,4.8,,0,0.,4.8,2.,4.8
1979-07-26 12:11:08.030 ,2,0,,0,0.,4.8,0.,4.8,,0,0.,4.8,1.,4.8
1979-07-26 12:11:12.830 ,1,0,,0,0.,4.8,0.,4.8,,0,0.,4.8,1.,4.8
1979-07-26 12:11:17.630 ,1,0,,0,0.,4.8,0.,4.8,,0,0.,4.8,3.,4.8
1979-07-26 12:11:22.430 ,1,0,,0,2.,4.8,1.,4.8,,0,0.,4.8,3.,4.8
1979-07-26 12:11:27.230 ,1,0,,0,21.,4.8,2.,4.8,,0,0.,4.8,4.,4.8
1979-07-26 12:11:32.030 ,1,0,,0,25.,4.8,2.,4.8,,0,0.,4.8,7.,4.8
1979-07-26 12:11:36.830 ,1,0,,0,19.,4.8,3.,4.8,,0,0.,4.8,2.,4.8
1979-07-26 12:11:41.630 ,1,0,,0,22.,4.8,3.,4.8,,0,0.,4.8,4.,4.8
1979-07-26 12:11:46.430 ,1,0,,0,12.,4.8,2.,4.8,,0,0.,4.8,4.,4.8
1979-07-26 12:11:51.230 ,1,0,,0,0.,4.8,0.,4.8,,0,0.,4.8,3.,4.8
1979-07-26 12:11:56.030 ,1,0,,0,0.,4.8,0.,4.8,,0,0.,4.8,2.,4.8
1979-07-26 12:12:00.830 ,0,0,,0,0.,4.8,0.,4.8,,0,0.,4.8,4.,4.8
1979-07-26 12:12:05.630 ,0,0,,0,0.,4.8,0.,4.8,,0,0.,4.8,15.,4.8
1979-07-26 12:12:10.430 ,0,0,,0,17.,4.8,1.,4.8,,0,0.,4.8,29.,4.8
1979-07-26 12:12:15.230 ,0,0,,0,110.,4.8,12.,4.8,,0,0.,4.8,37.,4.8
1979-07-26 12:12:20.030 ,0,0,,0,100.,4.8,9.,4.8,,0,0.,4.8,39.,4.8
1979-07-26 12:12:24.830 ,0,0,,0,102.,4.8,15.,4.8,,0,1.,4.8,40.,4.8
1979-07-26 12:12:29.630 ,0,0,,0,122.,4.8,15.,4.8,,0,0.,4.8,33.,4.8
1979-07-26 12:12:34.430 ,0,0,,0,104.,4.8,16.,4.8,,0,0.,4.8,18.,4.8
1979-07-26 12:12:39.230 ,0,0,,0,0.,4.8,0.,4.8,,0,0.,4.8,27.,4.8
1979-07-26 12:12:44.030 ,0,0,,0,0.,4.8,0.,4.8,,0,0.,4.8,27.,4.8
1979-07-26 12:12:48.830 ,0,0,,0,0.,4.8,0.,4.8,,0,0.,4.8,28.,4.8
1979-07-26 12:12:53.630 ,0,0,,0,0.,4.8,0.,4.8,,0,0.,4.8,26.,4.8
1979-07-26 12:12:58.430 ,0,0,,0,12.,4.8,0.,4.8,,0,0.,4.8,29.,4.8
1979-07-26 12:13:03.230 ,0,0,,0,110.,4.8,13.,4.8,,0,0.,4.8,25.,4.8
1979-07-26 12:13:08.030 ,0,0,,0,108.,4.8,12.,4.8,,0,1.,4.8,21.,4.8
1979-07-26 12:13:12.830 ,0,0,,0,118.,4.8,10.,4.8,,0,0.,4.8,28.,4.8
1979-07-26 12:13:17.630 ,0,0,,0,98.,4.8,11.,4.8,,0,0.,4.8,29.,4.8
1979-07-26 12:13:22.430 ,0,0,,0,86.,4.8,8.,4.8,,0,0.,4.8,27.,4.8
1979-07-26 12:13:27.230 ,0,0,,0,0.,4.8,0.,4.8,,0,0.,4.8,23.,4.8
1979-07-26 12:13:32.030 ,0,0,,0,0.,4.8,0.,4.8,,0,0.,4.8,24.,4.8
1979-07-26 12:13:36.830 ,1,0,,0,0.,4.8,0.,4.8,,0,0.,4.8,27.,4.8
1979-07-26 12:13:41.630 ,1,0,,0,0.,4.8,0.,4.8,,0,0.,4.8,28.,4.8
1979-07-26 12:13:46.430 ,1,0,,0,4.,4.8,1.,4.8,,0,0.,4.8,3.,4.8
1979-07-26 12:13:51.230 ,1,0,,0,24.,4.8,0.,4.8,,0,0.,4.8,3.,4.8
1979-07-26 12:13:56.030 ,1,0,,0,14.,4.8,0.,4.8,,0,0.,4.8,3.,4.8
1979-07-26 12:14:00.830 ,1,0,,0,18.,4.8,0.,4.8,,0,0.,4.8,4.,4.8
1979-07-26 12:14:05.630 ,1,0,,0,13.,4.8,1.,4.8,,0,0.,4.8,2.,4.8
1979-07-26 12:14:10.430 ,1,0,,0,18.,4.8,0.,4.8,,0,0.,4.8,1.,4.8
1979-07-26 12:14:15.230 ,1,0,,0,0.,4.8,0.,4.8,,0,0.,4.8,5.,4.8
1979-07-26 12:14:20.030 ,1,0,,0,1.,4.8,0.,4.8,,0,0.,4.8,3.,4.8
1979-07-26 12:14:24.830 ,2,0,,0,0.,4.8,0.,4.8,,0,0.,4.8,5.,4.8
1979-07-26 12:14:29.630 ,2,0,,0,0.,4.8,0.,4.8,,0,0.,4.8,2.,4.8
1979-07-26 12:14:34.430 ,2,0,,0,0.,4.8,0.,4.8,,0,0.,4.8,1.,4.8
1979-07-26 12:14:39.230 ,2,0,,0,4.,4.8,1.,4.8,,0,0.,4.8,1.,4.8
1979-07-26 12:14:44.030 ,2,0,,0,5.,4.8,0.,4.8,,0,0.,4.8,1.,4.8
1979-07-26 12:14:48.830 ,2,0,,0,5.,4.8,0.,4.8,,0,0.,4.8,2.,4.8
1979-07-26 12:14:53.630 ,2,0,,0,3.,4.8,0.,4.8,,0,0.,4.8,3.,4.8
1979-07-26 12:14:58.430 ,2,0,,0,6.,4.8,0.,4.8,,0,0.,4.8,2.,4.8
1979-07-26 12:15:03.230 ,2,0,,0,0.,4.8,0.,4.8,,0,0.,4.8,0.,4.8
1979-07-26 12:15:08.030 ,2,0,,0,0.,4.8,0.,4.8,,0,1.,4.8,1.,4.8
1979-07-26 12:15:12.830 ,3,0,,0,0.,4.8,0.,4.8,,0,0.,4.8,0.,4.8
1979-07-26 12:15:17.630 ,3,0,,0,0.,4.8,0.,4.8,,0,1.,4.8,2.,4.8
1979-07-26 12:15:22.430 ,3,0,,0,0.,4.8,0.,4.8,,0,0.,4.8,0.,4.8
1979-07-26 12:15:27.230 ,3,0,,0,2.,4.8,0.,4.8,,0,0.,4.8,1.,4.8
1979-07-26 12:15:32.030 ,3,0,,0,9.,4.8,0.,4.8,,0,0.,4.8,0.,4.8
1979-07-26 12:15:36.830 ,3,0,,0,6.,4.8,0.,4.8,,0,0.,4.8,0.,4.8
1979-07-26 12:15:41.630 ,3,0,,0,4.,4.8,0.,4.8,,0,0.,4.8,0.,4.8
1979-07-26 12:15:46.430 ,3,0,,0,1.,4.8,1.,4.8,,0,0.,4.8,0.,4.8
1979-07-26 12:15:51.230 ,3,0,,0,0.,4.8,0.,4.8,,0,0.,4.8,1.,4.8
1979-07-26 12:15:56.030 ,3,0,,0,0.,4.8,0.,4.8,,0,0.,4.8,1.,4.8
1979-07-26 12:16:00.830 ,4,0,,0,0.,4.8,0.,4.8,,0,0.,4.8,0.,4.8
1979-07-26 12:16:05.630 ,4,0,,0,0.,4.8,0.,4.8,,0,0.,4.8,0.,4.8
1979-07-26 12:16:10.430 ,4,0,,0,1.,4.8,0.,4.8,,0,0.,4.8,0.,4.8
1979-07-26 12:16:15.230 ,4,0,,0,4.,4.8,0.,4.8,,0,0.,4.8,1.,4.8
1979-07-26 12:16:20.030 ,4,0,,0,3.,4.8,0.,4.8,,0,0.,4.8,1.,4.8
1979-07-26 12:16:24.830 ,4,0,,0,6.,4.8,1.,4.8,,0,0.,4.8,0.,4.8
1979-07-26 12:16:29.630 ,4,0,,0,6.,4.8,0.,4.8,,0,0.,4.8,0.,4.8
1979-07-26 12:16:34.430 ,4,0,,0,2.,4.8,0.,4.8,,0,0.,4.8,0.,4.8
1979-07-26 12:16:39.230 ,4,0,,0,0.,4.8,0.,4.8,,0,0.,4.8,1.,4.8
1979-07-26 12:16:44.030 ,4,0,,0,0.,4.8,0.,4.8,,0,0.,4.8,0.,4.8
1979-07-26 12:16:48.830 ,5,0,,0,0.,4.8,0.,4.8,,0,0.,4.8,0.,4.8
1979-07-26 12:16:53.630 ,5,0,,0,0.,4.8,0.,4.8,,0,0.,4.8,0.,4.8
1979-07-26 12:16:58.430 ,5,0,,0,0.,4.8,0.,4.8,,0,0.,4.8,0.,4.8
1979-07-26 12:17:03.230 ,5,0,,0,3.,4.8,0.,4.8,,0,0.,4.8,0.,4.8
1979-07-26 12:17:08.030 ,5,0,,0,1.,4.8,0.,4.8,,0,0.,4.8,0.,4.8
1979-07-26 12:17:12.830 ,5,0,,0,3.,4.8,1.,4.8,,0,0.,4.8,0.,4.8
1979-07-26 12:17:17.630 ,5,0,,0,2.,4.8,0.,4.8,,0,0.,4.8,0.,4.8
1979-07-26 12:17:22.430 ,5,0,,0,1.,4.8,0.,4.8,,0,0.,4.8,1.,4.8
1979-07-26 12:17:27.230 ,5,0,,0,1.,4.8,0.,4.8,,0,0.,4.8,1.,4.8
1979-07-26 12:17:32.030 ,5,0,,0,0.,4.8,0.,4.8,,0,0.,4.8,1.,4.8
1979-07-26 12:17:36.830 ,6,0,,0,0.,4.8,0.,4.8,,0,0.,4.8,0.,4.8
1979-07-26 12:17:41.630 ,6,0,,0,0.,4.8,0.,4.8,,0,0.,4.8,0.,4.8
1979-07-26 12:17:46.430 ,6,0,,0,1.,4.8,0.,4.8,,0,0.,4.8,0.,4.8
1979-07-26 12:17:51.230 ,6,0,,0,6.,4.8,1.,4.8,,0,0.,4.8,0.,4.8
1979-07-26 12:17:56.030 ,6,0,,0,4.,4.8,0.,4.8,,0,0.,4.8,0.,4.8
1979-07-26 12:18:00.830 ,6,0,,0,8.,4.8,0.,4.8,,0,0.,4.8,0.,4.8
1979-07-26 12:18:05.630 ,6,0,,0,6.,4.8,0.,4.8,,0,0.,4.8,0.,4.8
1979-07-26 12:18:10.430 ,6,0,,0,8.,4.8,0.,4.8,,0,0.,4.8,0.,4.8
1979-07-26 12:18:15.230 ,6,0,,0,0.,4.8,0.,4.8,,0,0.,4.8,0.,4.8
1979-07-26 12:18:20.030 ,6,0,,0,0.,4.8,0.,4.8,,0,0.,4.8,0.,4.8
1979-07-26 12:18:24.830 ,7,0,,0,0.,4.8,0.,4.8,,0,0.,4.8,0.,4.8
1979-07-26 12:18:29.630 ,7,0,,0,0.,4.8,0.,4.8,,0,0.,4.8,0.,4.8
1979-07-26 12:18:34.430 ,7,0,,0,3.,4.8,0.,4.8,,0,0.,4.8,0.,4.8
1979-07-26 12:18:39.230 ,7,0,,0,12.,4.8,0.,4.8,,0,0.,4.8,0.,4.8
1979-07-26 12:18:44.030 ,7,0,,0,7.,4.8,0.,4.8,,0,0.,4.8,1.,4.8
1979-07-26 12:18:48.830 ,7,0,,0,5.,4.8,0.,4.8,,0,0.,4.8,0.,4.8
1979-07-26 12:18:53.630 ,7,0,,0,7.,4.8,0.,4.8,,0,0.,4.8,0.,4.8
1979-07-26 12:18:58.430 ,7,0,,0,10.,4.8,0.,4.8,,0,0.,4.8,0.,4.8
1979-07-26 12:19:03.230 ,7,0,,0,0.,4.8,0.,4.8,,0,0.,4.8,0.,4.8
1979-07-26 12:19:08.030 ,7,0,,0,0.,4.8,0.,4.8,,0,0.,4.8,0.,4.8
1979-07-26 12:19:12.830 ,3,1,,0,0.,4.8,0.,4.8,,0,0.,4.8,0.,4.8
1979-07-26 12:19:17.630 ,3,1,,0,,0,,0,,0,,0,,0
1979-07-26 12:19:22.430 ,3,1,,0,1.,4.8,0.,4.8,,0,0.,4.8,0.,4.8
1979-07-26 12:19:27.230 ,3,1,,0,2.,4.8,0.,4.8,,0,0.,4.8,0.,4.8
1979-07-26 12:19:32.030 ,3,1,,0,0.,4.8,0.,4.8,,0,0.,4.8,1.,4.8
1979-07-26 12:19:36.830 ,0,1,,0,8.,4.8,0.,4.8,,0,0.,4.8,0.,4.8
1979-07-26 12:19:41.630 ,0,1,,0,10.,4.8,0.,4.8,,0,0.,4.8,1.,4.8
1979-07-26 12:19:46.430 ,0,1,,0,18.,4.8,1.,4.8,,0,0.,4.8,11.,4.8
1979-07-26 12:19:51.230 ,0,1,,0,0.,4.8,0.,4.8,,0,0.,4.8,30.,4.8
1979-07-26 12:19:56.030 ,0,1,,0,0.,4.8,0.,4.8,,0,0.,4.8,40.,4.8
1979-07-26 12:20:00.830 ,4,1,,0,0.,4.8,0.,4.8,,0,0.,4.8,17.,4.8
1979-07-26 12:20:05.630 ,4,1,,0,0.,4.8,0.,4.8,,0,0.,4.8,4.,4.8
1979-07-26 12:20:10.430 ,4,1,,0,2.,4.8,0.,4.8,,0,0.,4.8,1.,4.8
1979-07-26 12:20:15.230 ,4,1,,0,2.,4.8,0.,4.8,,0,0.,4.8,1.,4.8
1979-07-26 12:20:20.030 ,4,1,,0,4.,4.8,0.,4.8,,0,0.,4.8,1.,4.8
1979-07-26 12:20:24.830 ,7,1,,0,8.,4.8,0.,4.8,,0,0.,4.8,0.,4.8
1979-07-26 12:20:29.630 ,7,1,,0,3.,4.8,0.,4.8,,0,0.,4.8,0.,4.8
1979-07-26 12:20:34.430 ,7,1,,0,0.,4.8,0.,4.8,,0,0.,4.8,0.,4.8
1979-07-26 12:20:39.230 ,7,1,,0,0.,4.8,0.,4.8,,0,0.,4.8,0.,4.8
1979-07-26 12:20:44.030 ,7,1,,0,0.,4.8,0.,4.8,,0,0.,4.8,0.,4.8
1979-07-26 12:20:48.830 ,3,1,,0,0.,4.8,0.,4.8,,0,0.,4.8,0.,4.8
1979-07-26 12:20:53.630 ,3,1,,0,0.,4.8,0.,4.8,,0,0.,4.8,0.,4.8
1979-07-26 12:20:58.430 ,3,1,,0,0.,4.8,0.,4.8,,0,0.,4.8,0.,4.8
1979-07-26 12:21:03.230 ,3,1,,0,2.,4.8,0.,4.8,,0,0.,4.8,1.,4.8
1979-07-26 12:21:08.030 ,3,1,,0,2.,4.8,0.,4.8,,0,0.,4.8,0.,4.8
1979-07-26 12:21:12.830 ,0,1,,0,7.,4.8,0.,4.8,,0,0.,4.8,0.,4.8
1979-07-26 12:21:17.630 ,0,1,,0,13.,4.8,0.,4.8,,0,0.,4.8,2.,4.8
1979-07-26 12:21:22.430 ,0,1,,0,16.,4.8,3.,4.8,,0,0.,4.8,9.,4.8
1979-07-26 12:21:27.230 ,0,1,,0,0.,4.8,0.,4.8,,0,0.,4.8,33.,4.8
1979-07-26 12:21:32.030 ,0,1,,0,0.,4.8,0.,4.8,,0,0.,4.8,27.,4.8
1979-07-26 12:21:36.830 ,4,1,,0,0.,4.8,0.,4.8,,0,0.,4.8,17.,4.8
1979-07-26 12:21:41.630 ,4,1,,0,0.,4.8,0.,4.8,,0,0.,4.8,4.,4.8
1979-07-26 12:21:46.430 ,4,1,,0,0.,4.8,0.,4.8,,0,0.,4.8,1.,4.8
1979-07-26 12:21:51.230 ,4,1,,0,7.,4.8,1.,4.8,,0,0.,4.8,1.,4.8
1979-07-26 12:21:56.030 ,4,1,,0,2.,4.8,0.,4.8,,0,0.,4.8,0.,4.8
1979-07-26 12:22:00.830 ,7,1,,0,4.,4.8,0.,4.8,,0,0.,4.8,0.,4.8
1979-07-26 12:22:05.630 ,7,1,,0,1.,4.8,0.,4.8,,0,0.,4.8,0.,4.8
1979-07-26 12:22:10.430 ,7,1,,0,7.,4.8,2.,4.8,,0,0.,4.8,1.,4.8
1979-07-26 12:22:15.230 ,7,1,,0,0.,4.8,0.,4.8,,0,0.,4.8,0.,4.8
1979-07-26 12:22:20.030 ,7,1,,0,0.,4.8,0.,4.8,,0,0.,4.8,0.,4.8
1979-07-26 12:22:24.830 ,3,1,,0,0.,4.8,0.,4.8,,0,0.,4.8,0.,4.8
1979-07-26 12:22:29.630 ,3,1,,0,0.,4.8,0.,4.8,,0,0.,4.8,1.,4.8
1979-07-26 12:22:34.430 ,3,1,,0,0.,4.8,0.,4.8,,0,0.,4.8,0.,4.8
1979-07-26 12:22:39.230 ,3,1,,0,4.,4.8,1.,4.8,,0,0.,4.8,0.,4.8
1979-07-26 12:22:44.030 ,3,1,,0,3.,4.8,0.,4.8,,0,0.,4.8,4.,4.8
1979-07-26 12:22:48.830 ,0,1,,0,7.,4.8,0.,4.8,,0,0.,4.8,0.,4.8
1979-07-26 12:22:53.630 ,0,1,,0,21.,4.8,2.,4.8,,0,0.,4.8,4.,4.8
1979-07-26 12:22:58.430 ,0,1,,0,22.,4.8,3.,4.8,,0,0.,4.8,3.,4.8
1979-07-26 12:23:03.230 ,0,1,,0,0.,4.8,0.,4.8,,0,0.,4.8,39.,4.8
1979-07-26 12:23:08.030 ,0,1,,0,0.,4.8,0.,4.8,,0,0.,4.8,36.,4.8
1979-07-26 12:23:12.830 ,4,1,,0,0.,4.8,0.,4.8,,0,0.,4.8,18.,4.8
1979-07-26 12:23:17.630 ,4,1,,0,0.,4.8,0.,4.8,,0,0.,4.8,5.,4.8
1979-07-26 12:23:22.430 ,4,1,,0,1.,4.8,0.,4.8,,0,0.,4.8,0.,4.8
1979-07-26 12:23:27.230 ,4,1,,0,3.,4.8,0.,4.8,,0,0.,4.8,0.,4.8
1979-07-26 12:23:32.030 ,4,1,,0,5.,4.8,0.,4.8,,0,0.,4.8,0.,4.8
1979-07-26 12:23:36.830 ,7,1,,0,2.,4.8,0.,4.8,,0,0.,4.8,1.,4.8
1979-07-26 12:23:41.630 ,7,1,,0,4.,4.8,0.,4.8,,0,0.,4.8,0.,4.8
1979-07-26 12:23:46.430 ,7,1,,0,2.,4.8,0.,4.8,,0,0.,4.8,0.,4.8
1979-07-26 12:23:51.230 ,7,1,,0,0.,4.8,0.,4.8,,0,0.,4.8,0.,4.8
1979-07-26 12:23:56.030 ,7,1,,0,0.,4.8,0.,4.8,,0,0.,4.8,0.,4.8
1979-07-26 12:24:00.830 ,3,1,,0,0.,4.8,0.,4.8,,0,0.,4.8,0.,4.8
1979-07-26 12:24:05.630 ,3,1,,0,0.,4.8,0.,4.8,,0,0.,4.8,0.,4.8
1979-07-26 12:24:10.430 ,3,1,,0,0.,4.8,0.,4.8,,0,0.,4.8,0.,4.8
1979-07-26 12:24:15.230 ,3,1,,0,3.,4.8,0.,4.8,,0,0.,4.8,0.,4.8
1979-07-26 12:24:20.030 ,3,1,,0,3.,4.8,0.,4.8,,0,0.,4.8,0.,4.8
1979-07-26 12:24:24.830 ,0,1,,0,6.,4.8,0.,4.8,,0,0.,4.8,2.,4.8
1979-07-26 12:24:29.630 ,0,1,,0,18.,4.8,0.,4.8,,0,0.,4.8,6.,4.8
1979-07-26 12:24:34.430 ,0,1,,0,25.,4.8,1.,4.8,,0,0.,4.8,10.,4.8
1979-07-26 12:24:39.230 ,0,1,,0,0.,4.8,0.,4.8,,0,0.,4.8,34.,4.8
1979-07-26 12:24:44.030 ,0,1,,0,0.,4.8,0.,4.8,,0,0.,4.8,40.,4.8
1979-07-26 12:24:48.830 ,4,1,,0,0.,4.8,0.,4.8,,0,0.,4.8,12.,4.8
1979-07-26 12:24:53.630 ,4,1,,0,0.,4.8,0.,4.8,,0,0.,4.8,2.,4.8
1979-07-26 12:24:58.430 ,4,1,,0,2.,4.8,0.,4.8,,0,0.,4.8,3.,4.8
1979-07-26 12:25:03.230 ,4,1,,0,3.,4.8,0.,4.8,,0,0.,4.8,1.,4.8
1979-07-26 12:25:08.030 ,4,1,,0,8.,4.8,0.,4.8,,0,0.,4.8,0.,4.8
1979-07-26 12:25:12.830 ,7,1,,0,2.,4.8,0.,4.8,,0,0.,4.8,1.,4.8
1979-07-26 12:25:17.630 ,7,1,,0,2.,4.8,0.,4.8,,0,0.,4.8,0.,4.8
1979-07-26 12:25:22.430 ,7,1,,0,2.,4.8,0.,4.8,,0,0.,4.8,1.,4.8
1979-07-26 12:25:27.230 ,7,1,,0,0.,4.8,0.,4.8,,0,0.,4.8,0.,4.8
1979-07-26 12:25:32.030 ,7,1,,0,0.,4.8,0.,4.8,,0,0.,4.8,0.,4.8
1979-07-26 12:25:36.830 ,3,1,,0,0.,4.8,0.,4.8,,0,0.,4.8,1.,4.8
1979-07-26 12:25:41.630 ,3,1,,0,0.,4.8,0.,4.8,,0,0.,4.8,1.,4.8
1979-07-26 12:25:46.430 ,3,1,,0,0.,4.8,0.,4.8,,0,0.,4.8,2.,4.8
1979-07-26 12:25:51.230 ,3,1,,0,2.,4.8,0.,4.8,,0,0.,4.8,1.,4.8
1979-07-26 12:25:56.030 ,3,1,,0,2.,4.8,0.,4.8,,0,0.,4.8,1.,4.8
1979-07-26 12:26:00.830 ,0,1,,0,0.,4.8,0.,4.8,,0,0.,4.8,3.,4.8
1979-07-26 12:26:05.630 ,0,1,,0,10.,4.8,0.,4.8,,0,0.,4.8,1.,4.8
1979-07-26 12:26:10.430 ,0,1,,0,22.,4.8,3.,4.8,,0,0.,4.8,3.,4.8
1979-07-26 12:26:15.230 ,0,1,,0,0.,4.8,0.,4.8,,0,0.,4.8,33.,4.8
1979-07-26 12:26:20.030 ,0,1,,0,0.,4.8,0.,4.8,,0,0.,4.8,44.,4.8
1979-07-26 12:26:24.830 ,4,1,,0,0.,4.8,0.,4.8,,0,0.,4.8,20.,4.8
1979-07-26 12:26:29.630 ,4,1,,0,0.,4.8,0.,4.8,,0,0.,4.8,6.,4.8
1979-07-26 12:26:34.430 ,4,1,,0,2.,4.8,0.,4.8,,0,0.,4.8,2.,4.8
1979-07-26 12:26:39.230 ,4,1,,0,4.,4.8,0.,4.8,,0,0.,4.8,0.,4.8
1979-07-26 12:26:44.030 ,4,1,,0,3.,4.8,0.,4.8,,0,0.,4.8,0.,4.8
1979-07-26 12:26:48.830 ,7,1,,0,6.,4.8,0.,4.8,,0,0.,4.8,0.,4.8
1979-07-26 12:26:53.630 ,7,1,,0,4.,4.8,0.,4.8,,0,1.,4.8,0.,4.8
1979-07-26 12:26:58.430 ,7,1,,0,6.,4.8,1.,4.8,,0,0.,4.8,0.,4.8
1979-07-26 12:27:03.230 ,7,1,,0,0.,4.8,0.,4.8,,0,0.,4.8,0.,4.8
1979-07-26 12:27:08.030 ,7,1,,0,0.,4.8,0.,4.8,,0,0.,4.8,0.,4.8
1979-07-26 12:27:12.830 ,3,1,,0,0.,4.8,0.,4.8,,0,0.,4.8,1.,4.8
1979-07-26 12:27:17.630 ,3,1,,0,0.,4.8,0.,4.8,,0,0.,4.8,0.,4.8
1979-07-26 12:27:22.430 ,3,1,,0,2.,4.8,0.,4.8,,0,0.,4.8,0.,4.8
1979-07-26 12:27:27.230 ,3,1,,0,2.,4.8,0.,4.8,,0,0.,4.8,0.,4.8
1979-07-26 12:27:32.030 ,3,1,,0,3.,4.8,0.,4.8,,0,0.,4.8,0.,4.8
1979-07-26 12:27:36.830 ,0,1,,0,4.,4.8,0.,4.8,,0,0.,4.8,0.,4.8
1979-07-26 12:27:41.630 ,0,1,,0,14.,4.8,0.,4.8,,0,0.,4.8,1.,4.8
1979-07-26 12:27:46.430 ,0,1,,0,13.,4.8,0.,4.8,,0,0.,4.8,4.,4.8
1979-07-26 12:27:51.230 ,0,1,,0,0.,4.8,0.,4.8,,0,0.,4.8,36.,4.8
1979-07-26 12:27:56.030 ,0,1,,0,0.,4.8,0.,4.8,,0,0.,4.8,28.,4.8
1979-07-26 12:28:00.830 ,4,0,,0,0.,4.8,0.,4.8,,0,0.,4.8,16.,4.8
1979-07-26 12:28:05.630 ,4,0,,0,0.,4.8,0.,4.8,,0,0.,4.8,3.,4.8
1979-07-26 12:28:10.430 ,4,0,,0,0.,4.8,0.,4.8,,0,0.,4.8,0.,4.8
1979-07-26 12:28:15.230 ,4,0,,0,4.,4.8,0.,4.8,,0,0.,4.8,0.,4.8
1979-07-26 12:28:20.030 ,4,0,,0,,0,,0,,0,,0,,0
1979-07-26 12:28:24.830 ,7,1,,0,3.,4.8,0.,4.8,,0,0.,4.8,0.,4.8
1979-07-26 12:28:29.630 ,7,1,,0,3.,4.8,0.,4.8,,0,0.,4.8,0.,4.8
1979-07-26 12:28:34.430 ,7,1,,0,1.,4.8,0.,4.8,,0,0.,4.8,0.,4.8
1979-07-26 12:28:39.230 ,7,1,,0,0.,4.8,0.,4.8,,0,0.,4.8,0.,4.8
1979-07-26 12:28:44.030 ,7,1,,0,0.,4.8,0.,4.8,,0,0.,4.8,0.,4.8
1979-07-26 12:28:48.830 ,3,1,,0,0.,4.8,0.,4.8,,0,0.,4.8,0.,4.8
1979-07-26 12:28:53.630 ,3,1,,0,0.,4.8,0.,4.8,,0,0.,4.8,0.,4.8
1979-07-26 12:28:58.430 ,3,1,,0,0.,4.8,0.,4.8,,0,0.,4.8,0.,4.8
1979-07-26 12:29:03.230 ,3,1,,0,4.,4.8,0.,4.8,,0,0.,4.8,1.,4.8
1979-07-26 12:29:08.030 ,3,1,,0,2.,4.8,1.,4.8,,0,0.,4.8,1.,4.8
1979-07-26 12:29:12.830 ,0,1,,0,7.,4.8,1.,4.8,,0,0.,4.8,1.,4.8
1979-07-26 12:29:17.630 ,0,1,,0,8.,4.8,1.,4.8,,0,0.,4.8,4.,4.8
1979-07-26 12:29:22.430 ,0,1,,0,14.,4.8,1.,4.8,,0,0.,4.8,5.,4.8
1979-07-26 12:29:27.230 ,0,1,,0,0.,4.8,0.,4.8,,0,0.,4.8,36.,4.8
1979-07-26 12:29:32.030 ,0,1,,0,0.,4.8,0.,4.8,,0,0.,4.8,31.,4.8
1979-07-26 12:29:36.830 ,0,0,,0,0.,4.8,0.,4.8,,0,0.,4.8,20.,4.8
1979-07-26 12:29:41.630 ,0,0,,0,0.,4.8,0.,4.8,,0,0.,4.8,4.,4.8
1979-07-26 12:29:46.430 ,0,0,,0,0.,4.8,0.,4.8,,0,0.,4.8,1.,4.8
1979-07-26 12:29:51.230 ,0,0,,0,6.,4.8,0.,4.8,,0,0.,4.8,0.,4.8
1979-07-26 12:29:56.030 ,0,0,,0,4.,4.8,0.,4.8,,0,0.,4.8,0.,4.8
1979-07-26 12:30:00.830 ,0,0,,0,2.,4.8,1.,4.8,,0,0.,4.8,0.,4.8
1979-07-26 12:30:05.630 ,0,0,,0,3.,4.8,0.,4.8,,0,0.,4.8,0.,4.8
1979-07-26 12:30:10.430 ,0,0,,0,5.,4.8,0.,4.8,,0,0.,4.8,0.,4.8